Location: Asheville, NC
(35.6000°N, 82.5500°W)
Time: 20:11:19

RS-15 - Pass Details

Date: 09 March 2018
Orbit: 1887 x 2157 km, 64.8° (Epoch: 17 March)

Event Time Altitude Azimuth Distance (km) Brightness Sun altitude
Exits shadow 03:58:05 15° 314° (NW) 4,184 9.5 -35.0°
Maximum altitude 04:02:06 18° 337° (NNW) 3,968 9.6 -34.2°
Drops below altitude 10° 04:09:35 10° 17° (NNE) 4,540 10.3 -32.8°
Sets 04:14:50 0° 36° (NE) 5,491 11.1 -31.8°
